This demonstration page uses our WeatherBlox Daily Observations layout. Learn more.

38.89511, -77.03637

Hourly Observations for October 1, 2018

Temp ( °F °C ) Dew Point ( °F °C ) Humidity (%) Winds ( mph kmh ) Pressure ( in mb ) Visibility ( mi km ) Precip ( " mm )
12:52 am 00:52 Mostly Clear 66 18.9 62 16.7 87 87 S 7 11 30.3 1026 10 16.0934 0 0
1:52 am 01:52 Partly Cloudy 65 18.3 61 16.1 87 87 SSW 6 9 30.3 1026 10 16.0934 0 0
2:52 am 02:52 Partly Cloudy 65 18.3 61 16.1 87 87 SSW 6 9 30.29 1026 10 16.0934 0 0
3:52 am 03:52 Partly Cloudy 65 18.3 61 16.1 87 87 SSW 5 7 30.28 1026 10 16.0934 0 0
4:52 am 04:52 Mostly Clear 64 17.8 61 16.1 90 90 S 6 9 30.28 1025 10 16.0934 0 0
5:52 am 05:52 Mostly Clear 64 17.8 61 16.1 90 90 S 7 11 30.29 1026 10 16.0934 0 0
6:52 am 06:52 Mostly Cloudy 64 17.8 60 15.6 87 87 S 6 9 30.3 1026 10 16.0934 0 0
7:52 am 07:52 Partly Cloudy 66 18.9 61 16.1 84 84 S 7 11 30.31 1026 10 16.0934 0 0
8:52 am 08:52 Partly Cloudy 67 19.4 62 16.7 84 84 S 8 13 30.32 1027 10 16.0934 0 0
9:52 am 09:52 Mostly Sunny 70 21.1 63 17.2 79 79 S 8 13 30.33 1027 10 16.0934 0 0
10:52 am 10:52 Mostly Sunny 73 22.8 64 17.8 74 74 S 12 19 30.32 1027 10 16.0934 0 0
11:52 am 11:52 Mostly Sunny 76 24.4 65 18.3 69 69 S 10 17 30.31 1026 10 16.0934 0 0
12:52 pm 12:52 Mostly Sunny 78 25.6 65 18.3 64 64 SSE 9 15 30.29 1026 10 16.0934 0 0
1:52 pm 13:52 Mostly Sunny 79 26.1 66 18.9 65 65 S 10 17 30.27 1025 10 16.0934 0 0
2:52 pm 14:52 Mostly Sunny 80 26.7 66 18.9 62 62 S 9 15 30.25 1024 10 16.0934 0 0
3:52 pm 15:52 Partly Cloudy 81 27.2 67 19.4 62 62 SSE 9 15 30.24 1024 10 16.0934 0 0
4:52 pm 16:52 Partly Cloudy 80 26.7 67 19.4 64 64 S 6 9 30.23 1024 10 16.0934 0 0
5:52 pm 17:52 Mostly Cloudy 78 25.6 66 18.9 67 67 S 9 15 30.22 1023 10 16.0934 0 0
6:52 pm 18:52 Mostly Cloudy 76 24.4 67 19.4 74 74 S 6 9 30.22 1023 10 16.0934 0 0
7:52 pm 19:52 Partly Cloudy 73 22.8 66 18.9 79 79 S 6 9 30.23 1024 10 16.0934 0 0
8:52 pm 20:52 Clear 72 22.2 66 18.9 82 82 S 7 11 30.24 1024 10 16.0934 0 0
9:52 pm 21:52 Clear 72 22.2 66 18.9 82 82 S 7 11 30.24 1024 10 16.0934 0 0
10:52 pm 22:52 Clear 71 21.7 65 18.3 81 81 S 8 13 30.24 1024 10 16.0934 0 0
11:52 pm 23:52 Clear 70 21.1 65 18.3 84 84 S 8 13 30.23 1024 10 16.0934 0 0

Powered by AerisWeather